Location: *
(1.3500°S, 147.5000°W)
Time: 17:44:44
(UTC+00:00)

STARLINK-43 - Pass Details

Date: 07 April 2020
Orbit: 469 x 472 km, 53.0° (Epoch: 28 May)

Event Time Altitude Azimuth Distance (km) Brightness Sun altitude
Rises 04:46:52 0° 200° (SSW) 2,502 7.2 -13.8°
Reaches altitude 10° 04:49:09 10° 190° (S) 1,624 6.1 -14.3°
Maximum altitude 04:52:29 33° 124° (SE) 802 4.0 -15.1°
Enters shadow 04:53:08 31° 101° (E) 848 4.0 -15.3°
